Location: *
(40.9167°N, 9.5000°E)
Time: 08:26:00
(UTC+00:00)

CZ-2C R/B - Pass Details

Date: 09 April 2020
Orbit: 639 x 705 km, 98.4° (Epoch: 03 June)

Event Time Altitude Azimuth Distance (km) Brightness Sun altitude
Rises 18:49:51 0° 20° (NNE) 3,071 7.1 -10.7°
Reaches altitude 10° 18:52:14 10° 27° (NNE) 2,141 6.3 -11.1°
Maximum altitude 18:56:41 42° 99° (E) 958 4.1 -11.9°
Drops below altitude 10° 19:01:01 10° 170° (S) 2,086 6.0 -12.6°
Sets 19:03:18 0° 178° (S) 2,983 6.8 -13.0°
